This is the latest recevied weather packets stored in our database for station/object KB3FKJ. If no packets are shown the sender has not sent any weather packets the latest 10 day(s).
| Time | Temp. | Humidity | Pressure | Rain* | Wind** | Luminosity | Snow |
|---|---|---|---|---|---|---|---|
| 1778072569 | 13.33° C | 92% | 1006.1 hPa | 0 mm | - | 31 W/m² | - |
| 1778072267 | 12.78° C | 92% | 1006.1 hPa | 0 mm | - | 41 W/m² | - |
| 1778071965 | 12.78° C | 92% | 1006.1 hPa | 0 mm | - | 28 W/m² | - |
| 1778071663 | 12.78° C | 92% | 1006 hPa | 0 mm | - | 15 W/m² | - |
| 1778071360 | 12.78° C | 92% | 1006.1 hPa | 0 mm | - | 8 W/m² | - |
| 1778071057 | 12.78° C | 93% | 1005.9 hPa | 0 mm | - | 14 W/m² | - |
| 1778070756 | 12.78° C | 93% | 1006 hPa | 0 mm | - | 30 W/m² | - |
| 1778070452 | 12.78° C | 94% | 1006.2 hPa | 0 mm | - | 21 W/m² | - |
| 1778070150 | 12.78° C | 95% | 1006 hPa | 1.27 mm | - | 40 W/m² | - |
| 1778069848 | 12.78° C | 95% | 1005.9 hPa | 3.05 mm | - | 39 W/m² | - |
| 1778069544 | 12.78° C | 95% | 1006 hPa | 1.78 mm | - | 10 W/m² | - |
| 1778069241 | 12.78° C | 95% | 1006.4 hPa | 1.27 mm | - | 24 W/m² | - |
| 1778068939 | 12.78° C | 95% | 1006.4 hPa | 3.05 mm | - | 12 W/m² | - |
| 1778068637 | 12.78° C | 95% | 1006.5 hPa | 1.78 mm | - | 11 W/m² | - |
| 1778068335 | 12.78° C | 95% | 1006.4 hPa | 1.27 mm | - | 15 W/m² | - |
| 1778068032 | 12.78° C | 95% | 1006.7 hPa | 3.05 mm | - | 11 W/m² | - |
| 1778067730 | 12.78° C | 95% | 1006.7 hPa | 1.78 mm | - | 14 W/m² | - |
| 1778067428 | 13.33° C | 95% | 1006.8 hPa | 1.27 mm | - | 9 W/m² | - |
| 1778067125 | 13.33° C | 95% | 1006.8 hPa | 3.05 mm | - | 8 W/m² | - |
| 1778066821 | 13.33° C | 95% | 1006.9 hPa | 1.78 mm | - | 6 W/m² | - |
| 1778066519 | 13.33° C | 95% | 1006.4 hPa | 0 mm | - | 4 W/m² | - |
| 1778066216 | 13.33° C | 94% | 1006.4 hPa | 0 mm | - | 3 W/m² | - |
| 1778065914 | 13.33° C | 94% | 1006.4 hPa | 0 mm | - | 7 W/m² | - |
| 1778065611 | 13.33° C | 94% | 1006.1 hPa | 0 mm | - | 8 W/m² | - |
| 1778065309 | 13.33° C | 93% | 1006.2 hPa | 0 mm | - | 12 W/m² | - |
* Rain latest hour (hover to see other rain measurements)
** Current wind speed in m/s (hover to see current wind gust speed)